Time,TemperatureF,DewpointF,PressureIn,WindDirection,WindDirectionDegrees,WindSpeedMPH,WindSpeedGustMPH,Humidity,HourlyPrecipIn,Conditions,Clouds,dailyrainin,SolarRadiationWatts/m^2,SoftwareType,DateUTC
2013-01-16 00:03:00,29.0,21.0,-100.00,South,183,2.0,5.0,71,-99.99,,,0.00,0.000000,,2013-01-16 05:03:00,
2013-01-16 00:12:00,29.0,21.0,-100.00,South,183,2.0,5.0,71,-99.99,,,0.00,0.000000,,2013-01-16 05:12:00,
2013-01-16 00:33:00,29.0,23.0,-100.00,SE,143,1.0,5.0,77,0.00,,,0.00,0.000000,,2013-01-16 05:33:00,
2013-01-16 00:42:00,29.0,23.0,-100.00,SE,143,1.0,5.0,77,0.00,,,0.00,0.000000,,2013-01-16 05:42:00,
2013-01-16 00:53:00,29.0,23.0,-100.00,SE,143,1.0,5.0,77,0.00,,,0.00,0.000000,,2013-01-16 05:53:00,
2013-01-16 01:03:00,29.0,23.0,-100.00,SE,143,1.0,5.0,77,0.00,,,0.00,0.000000,,2013-01-16 06:03:00,
2013-01-16 01:12:00,29.0,23.0,-100.00,SE,143,1.0,5.0,77,0.00,,,0.00,0.000000,,2013-01-16 06:12:00,
2013-01-16 01:33:00,28.0,22.0,-100.00,WNW,297,0.0,2.0,79,0.00,,,0.00,0.000000,,2013-01-16 06:33:00,
2013-01-16 01:43:00,28.0,22.0,-100.00,WNW,297,0.0,2.0,79,0.00,,,0.00,0.000000,,2013-01-16 06:43:00,
2013-01-16 01:53:00,28.0,22.0,-100.00,WNW,297,0.0,2.0,79,0.00,,,0.00,0.000000,,2013-01-16 06:53:00,
2013-01-16 02:02:00,28.0,22.0,-100.00,WNW,297,0.0,2.0,79,0.00,,,0.00,0.000000,,2013-01-16 07:02:00,
2013-01-16 02:12:00,28.0,22.0,-100.00,WNW,297,0.0,2.0,79,0.00,,,0.00,0.000000,,2013-01-16 07:12:00,
2013-01-16 02:33:00,28.0,23.0,-100.00,West,272,1.0,2.0,82,0.00,,,0.00,0.000000,,2013-01-16 07:33:00,
2013-01-16 02:42:00,28.0,23.0,-100.00,West,272,1.0,2.0,82,0.00,,,0.00,0.000000,,2013-01-16 07:42:00,
2013-01-16 02:52:00,28.0,23.0,-100.00,West,272,1.0,2.0,82,0.00,,,0.00,0.000000,,2013-01-16 07:52:00,
2013-01-16 03:03:00,28.0,23.0,-100.00,West,272,1.0,2.0,82,0.00,,,0.00,0.000000,,2013-01-16 08:03:00,
2013-01-16 03:12:00,28.0,23.0,-100.00,West,272,1.0,2.0,82,0.00,,,0.00,0.000000,,2013-01-16 08:12:00,
2013-01-16 03:42:00,28.0,23.0,-100.00,NNE,26,1.0,3.0,81,0.00,,,0.00,0.000000,,2013-01-16 08:42:00,
2013-01-16 03:53:00,28.0,23.0,-100.00,NNE,26,1.0,3.0,81,0.00,,,0.00,0.000000,,2013-01-16 08:53:00,
2013-01-16 04:02:00,28.0,23.0,-100.00,NNE,26,1.0,3.0,81,0.00,,,0.00,0.000000,,2013-01-16 09:02:00,
2013-01-16 04:12:00,28.0,23.0,-100.00,NNE,26,1.0,3.0,81,0.00,,,0.00,0.000000,,2013-01-16 09:12:00,
2013-01-16 04:33:00,29.0,22.0,-100.00,NE,54,2.0,4.0,74,0.00,,,0.00,0.000000,,2013-01-16 09:33:00,
2013-01-16 04:43:00,29.0,22.0,-100.00,NE,54,2.0,4.0,74,0.00,,,0.00,0.000000,,2013-01-16 09:43:00,
2013-01-16 04:53:00,29.0,22.0,-100.00,NE,54,2.0,4.0,74,0.00,,,0.00,0.000000,,2013-01-16 09:53:00,
2013-01-16 05:03:00,29.0,22.0,-100.00,NE,54,2.0,4.0,74,0.00,,,0.00,0.000000,,2013-01-16 10:03:00,
2013-01-16 05:12:00,29.0,22.0,-100.00,NE,54,2.0,4.0,74,0.00,,,0.00,0.000000,,2013-01-16 10:12:00,
2013-01-16 05:33:00,28.0,23.0,-100.00,NE,42,1.0,4.0,80,0.00,,,0.00,0.000000,,2013-01-16 10:33:00,
2013-01-16 05:43:00,28.0,23.0,-100.00,NE,42,1.0,4.0,80,0.00,,,0.00,0.000000,,2013-01-16 10:43:00,
2013-01-16 05:53:00,28.0,23.0,-100.00,NE,42,1.0,4.0,80,0.00,,,0.00,0.000000,,2013-01-16 10:53:00,
2013-01-16 06:02:00,28.0,23.0,-100.00,NE,42,1.0,4.0,80,0.00,,,0.00,0.000000,,2013-01-16 11:02:00,
2013-01-16 06:12:00,28.0,23.0,-100.00,NE,42,1.0,4.0,80,0.00,,,0.00,0.000000,,2013-01-16 11:12:00,
2013-01-16 06:33:00,27.0,25.0,-100.00,West,278,1.0,3.0,92,0.00,,,0.00,0.000000,,2013-01-16 11:33:00,
2013-01-16 06:43:00,27.0,25.0,-100.00,West,278,1.0,3.0,92,0.00,,,0.00,0.000000,,2013-01-16 11:43:00,
2013-01-16 06:53:00,27.0,25.0,-100.00,West,278,1.0,3.0,92,0.00,,,0.00,0.000000,,2013-01-16 11:53:00,
2013-01-16 07:03:00,27.0,25.0,-100.00,West,278,1.0,3.0,92,0.00,,,0.00,0.000000,,2013-01-16 12:03:00,
2013-01-16 07:13:00,27.0,25.0,-100.00,West,278,1.0,3.0,92,0.00,,,0.00,0.000000,,2013-01-16 12:13:00,
2013-01-16 07:33:00,28.0,26.0,-100.00,NNE,22,2.0,4.0,93,0.00,,,0.00,0.000000,,2013-01-16 12:33:00,
2013-01-16 07:43:00,28.0,26.0,-100.00,NNE,22,2.0,4.0,93,0.00,,,0.00,0.000000,,2013-01-16 12:43:00,
2013-01-16 07:53:00,28.0,26.0,-100.00,NNE,22,2.0,4.0,93,0.00,,,0.00,0.000000,,2013-01-16 12:53:00,
2013-01-16 08:03:00,28.0,26.0,-100.00,NNE,22,2.0,4.0,93,0.00,,,0.00,0.000000,,2013-01-16 13:03:00,
2013-01-16 08:12:00,28.0,26.0,-100.00,NNE,22,2.0,4.0,93,0.00,,,0.00,0.000000,,2013-01-16 13:12:00,
2013-01-16 08:33:00,28.0,26.0,-100.00,NNE,31,0.0,4.0,93,0.00,,,0.00,2.000000,,2013-01-16 13:33:00,
2013-01-16 08:43:00,28.0,26.0,-100.00,NNE,31,0.0,4.0,93,0.00,,,0.00,2.000000,,2013-01-16 13:43:00,
2013-01-16 08:53:00,28.0,26.0,-100.00,NNE,31,0.0,4.0,93,0.00,,,0.00,2.000000,,2013-01-16 13:53:00,
2013-01-16 09:03:00,28.0,26.0,-100.00,NNE,31,0.0,4.0,93,0.00,,,0.00,2.000000,,2013-01-16 14:03:00,
2013-01-16 09:12:00,28.0,26.0,-100.00,NNE,31,0.0,4.0,93,0.00,,,0.00,2.000000,,2013-01-16 14:12:00,
2013-01-16 09:33:00,30.0,26.0,-100.00,East,95,3.0,5.0,86,0.00,,,0.00,8.000000,,2013-01-16 14:33:00,
2013-01-16 09:43:00,30.0,26.0,-100.00,East,95,3.0,5.0,86,0.00,,,0.00,8.000000,,2013-01-16 14:43:00,
2013-01-16 09:53:00,30.0,26.0,-100.00,East,95,3.0,5.0,86,0.00,,,0.00,8.000000,,2013-01-16 14:53:00,
2013-01-16 10:03:00,30.0,26.0,-100.00,East,95,3.0,5.0,86,0.00,,,0.00,8.000000,,2013-01-16 15:03:00,
2013-01-16 10:12:00,30.0,26.0,-100.00,East,95,3.0,5.0,86,0.00,,,0.00,8.000000,,2013-01-16 15:12:00,
2013-01-16 10:43:00,30.0,25.0,-100.00,NNE,33,2.0,6.0,81,0.00,,,0.00,12.000000,,2013-01-16 15:43:00,
2013-01-16 10:53:00,30.0,25.0,-100.00,NNE,33,2.0,6.0,81,0.00,,,0.00,12.000000,,2013-01-16 15:53:00,
2013-01-16 11:04:00,30.0,25.0,-100.00,NNE,33,2.0,6.0,81,0.00,,,0.00,12.000000,,2013-01-16 16:04:00,
2013-01-16 11:12:00,30.0,25.0,-100.00,NNE,33,2.0,6.0,81,0.00,,,0.00,12.000000,,2013-01-16 16:12:00,
2013-01-16 11:33:00,31.0,27.0,-100.00,NNW,347,3.0,4.0,86,0.00,,,0.00,18.000000,,2013-01-16 16:33:00,
2013-01-16 11:43:00,31.0,27.0,-100.00,NNW,347,3.0,4.0,86,0.00,,,0.00,18.000000,,2013-01-16 16:43:00,
2013-01-16 11:53:00,31.0,27.0,-100.00,NNW,347,3.0,4.0,86,0.00,,,0.00,18.000000,,2013-01-16 16:53:00,
2013-01-16 12:03:00,31.0,27.0,-100.00,NNW,347,3.0,4.0,86,0.00,,,0.00,18.000000,,2013-01-16 17:03:00,
2013-01-16 12:12:00,31.0,27.0,-100.00,NNW,347,3.0,4.0,86,0.00,,,0.00,18.000000,,2013-01-16 17:12:00,
2013-01-16 12:33:00,30.0,27.0,-100.00,West,275,2.0,5.0,88,0.00,,,0.00,15.000000,,2013-01-16 17:33:00,
2013-01-16 12:44:00,30.0,27.0,-100.00,West,275,2.0,5.0,88,0.00,,,0.00,15.000000,,2013-01-16 17:44:00,
2013-01-16 12:53:00,30.0,27.0,-100.00,West,275,2.0,5.0,88,0.00,,,0.00,15.000000,,2013-01-16 17:53:00,
2013-01-16 13:03:00,30.0,27.0,-100.00,West,275,2.0,5.0,88,0.00,,,0.00,15.000000,,2013-01-16 18:03:00,
2013-01-16 13:13:00,30.0,27.0,-100.00,West,275,2.0,5.0,88,0.00,,,0.00,15.000000,,2013-01-16 18:13:00,
2013-01-16 13:33:00,31.0,28.0,-100.00,NW,304,2.0,3.0,87,0.00,,,0.00,15.000000,,2013-01-16 18:33:00,
2013-01-16 13:43:00,31.0,28.0,-100.00,NW,304,2.0,3.0,87,0.00,,,0.00,15.000000,,2013-01-16 18:43:00,
2013-01-16 13:53:00,31.0,28.0,-100.00,NW,304,2.0,3.0,87,0.00,,,0.00,15.000000,,2013-01-16 18:53:00,
2013-01-16 14:03:00,31.0,28.0,-100.00,NW,304,2.0,3.0,87,0.00,,,0.00,15.000000,,2013-01-16 19:03:00,
2013-01-16 14:13:00,31.0,28.0,-100.00,NW,304,2.0,3.0,87,0.00,,,0.00,15.000000,,2013-01-16 19:13:00,
2013-01-16 14:33:00,30.0,27.0,-100.00,West,268,2.0,3.0,90,0.00,,,0.00,10.000000,,2013-01-16 19:33:00,
2013-01-16 14:43:00,30.0,27.0,-100.00,West,268,2.0,3.0,90,0.00,,,0.00,10.000000,,2013-01-16 19:43:00,
2013-01-16 14:53:00,30.0,27.0,-100.00,West,268,2.0,3.0,90,0.00,,,0.00,10.000000,,2013-01-16 19:53:00,
2013-01-16 15:03:00,30.0,27.0,-100.00,West,268,2.0,3.0,90,0.00,,,0.00,10.000000,,2013-01-16 20:03:00,
2013-01-16 15:12:00,30.0,27.0,-100.00,West,268,2.0,3.0,90,0.00,,,0.00,10.000000,,2013-01-16 20:12:00,
2013-01-16 15:43:00,31.0,28.0,-100.00,West,265,1.0,3.0,90,0.00,,,0.00,9.000000,,2013-01-16 20:43:00,
2013-01-16 15:53:00,31.0,28.0,-100.00,West,265,1.0,3.0,90,0.00,,,0.00,9.000000,,2013-01-16 20:53:00,
2013-01-16 16:03:00,31.0,28.0,-100.00,West,265,1.0,3.0,90,0.00,,,0.00,9.000000,,2013-01-16 21:03:00,
2013-01-16 16:12:00,31.0,28.0,-100.00,West,265,1.0,3.0,90,0.00,,,0.00,9.000000,,2013-01-16 21:12:00,
2013-01-16 16:43:00,30.0,28.0,-100.00,South,181,0.0,3.0,93,0.00,,,0.00,5.000000,,2013-01-16 21:43:00,
2013-01-16 16:53:00,30.0,28.0,-100.00,South,181,0.0,3.0,93,0.00,,,0.00,5.000000,,2013-01-16 21:53:00,
2013-01-16 17:03:00,30.0,28.0,-100.00,South,181,0.0,3.0,93,0.00,,,0.00,5.000000,,2013-01-16 22:03:00,
2013-01-16 17:12:00,30.0,28.0,-100.00,South,181,0.0,3.0,93,0.00,,,0.00,5.000000,,2013-01-16 22:12:00,
2013-01-16 17:33:00,30.0,29.0,-100.00,NNE,21,2.0,4.0,95,0.00,,,0.00,1.000000,,2013-01-16 22:33:00,
2013-01-16 17:43:00,30.0,29.0,-100.00,NNE,21,2.0,4.0,95,0.00,,,0.00,1.000000,,2013-01-16 22:43:00,
2013-01-16 17:53:00,30.0,29.0,-100.00,NNE,21,2.0,4.0,95,0.00,,,0.00,1.000000,,2013-01-16 22:53:00,
2013-01-16 18:03:00,30.0,29.0,-100.00,NNE,21,2.0,4.0,95,0.00,,,0.00,1.000000,,2013-01-16 23:03:00,
2013-01-16 18:12:00,30.0,29.0,-100.00,NNE,21,2.0,4.0,95,0.00,,,0.00,1.000000,,2013-01-16 23:12:00,
2013-01-16 18:33:00,30.0,29.0,-100.00,NE,50,2.0,4.0,95,0.00,,,0.00,0.000000,,2013-01-16 23:33:00,
2013-01-16 18:43:00,30.0,29.0,-100.00,NE,50,2.0,4.0,95,0.00,,,0.00,0.000000,,2013-01-16 23:43:00,
2013-01-16 18:53:00,30.0,29.0,-100.00,NE,50,2.0,4.0,95,0.00,,,0.00,0.000000,,2013-01-16 23:53:00,
2013-01-16 19:03:00,30.0,29.0,-100.00,NE,50,2.0,4.0,95,0.00,,,0.00,0.000000,,2013-01-17 00:03:00,
2013-01-16 19:12:00,30.0,29.0,-100.00,NE,50,2.0,4.0,95,0.00,,,0.00,0.000000,,2013-01-17 00:12:00,
2013-01-16 19:33:00,30.0,29.0,-100.00,ENE,63,1.0,4.0,95,0.00,,,0.00,0.000000,,2013-01-17 00:33:00,
2013-01-16 19:42:00,30.0,29.0,-100.00,ENE,63,1.0,4.0,95,0.00,,,0.00,0.000000,,2013-01-17 00:42:00,
2013-01-16 19:53:00,30.0,29.0,-100.00,ENE,63,1.0,4.0,95,0.00,,,0.00,0.000000,,2013-01-17 00:53:00,
2013-01-16 20:02:00,30.0,29.0,-100.00,ENE,63,1.0,4.0,95,0.00,,,0.00,0.000000,,2013-01-17 01:02:00,
2013-01-16 20:12:00,30.0,29.0,-100.00,ENE,63,1.0,4.0,95,0.00,,,0.00,0.000000,,2013-01-17 01:12:00,
2013-01-16 20:33:00,31.0,30.0,-100.00,NE,34,4.0,8.0,95,0.00,,,0.00,0.000000,,2013-01-17 01:33:00,
2013-01-16 20:43:00,31.0,30.0,-100.00,NE,34,4.0,8.0,95,0.00,,,0.00,0.000000,,2013-01-17 01:43:00,
2013-01-16 20:53:00,31.0,30.0,-100.00,NE,34,4.0,8.0,95,0.00,,,0.00,0.000000,,2013-01-17 01:53:00,
2013-01-16 21:02:00,31.0,30.0,-100.00,NE,34,4.0,8.0,95,0.00,,,0.00,0.000000,,2013-01-17 02:02:00,
2013-01-16 21:12:00,31.0,30.0,-100.00,NE,34,4.0,8.0,95,0.00,,,0.00,0.000000,,2013-01-17 02:12:00,
2013-01-16 21:32:00,33.0,30.0,-100.00,NNW,329,4.0,12.0,87,0.00,,,0.00,0.000000,,2013-01-17 02:32:00,
2013-01-16 21:43:00,33.0,30.0,-100.00,NNW,329,4.0,12.0,87,0.00,,,0.00,0.000000,,2013-01-17 02:43:00,
2013-01-16 21:52:00,33.0,30.0,-100.00,NNW,329,4.0,12.0,87,0.00,,,0.00,0.000000,,2013-01-17 02:52:00,
2013-01-16 22:03:00,33.0,30.0,-100.00,NNW,329,4.0,12.0,87,0.00,,,0.00,0.000000,,2013-01-17 03:03:00,
2013-01-16 22:12:00,33.0,30.0,-100.00,NNW,329,4.0,12.0,87,0.00,,,0.00,0.000000,,2013-01-17 03:12:00,
2013-01-16 22:33:00,33.0,27.0,-100.00,NNW,340,6.0,16.0,78,0.00,,,-99.99,0.000000,,2013-01-17 03:33:00,
2013-01-16 22:43:00,33.0,27.0,-100.00,NNW,340,6.0,16.0,78,0.00,,,-99.99,0.000000,,2013-01-17 03:43:00,
2013-01-16 22:53:00,33.0,27.0,-100.00,NNW,340,6.0,16.0,78,0.00,,,-99.99,0.000000,,2013-01-17 03:53:00,
2013-01-16 23:02:00,33.0,27.0,-100.00,NNW,340,6.0,16.0,78,0.00,,,-99.99,0.000000,,2013-01-17 04:02:00,
2013-01-16 23:12:00,33.0,27.0,-100.00,NNW,340,6.0,16.0,78,0.00,,,-99.99,0.000000,,2013-01-17 04:12:00,
2013-01-16 23:33:00,33.0,26.0,-100.00,NNE,23,4.0,12.0,76,0.00,,,0.00,0.000000,,2013-01-17 04:33:00,
2013-01-16 23:43:00,33.0,26.0,-100.00,NNE,23,4.0,12.0,76,0.00,,,0.00,0.000000,,2013-01-17 04:43:00,
2013-01-16 23:53:00,33.0,26.0,-100.00,NNE,23,4.0,12.0,76,0.00,,,0.00,0.000000,,2013-01-17 04:53:00,